Location: Unspecified
(41.4022°N, 0.0000°E)
Time: 05:06:17
(UTC+00:00)

CHECKMATE 4 - Visible Passes

Search period start: 04 April 2026 00:00
Search period end: 14 April 2026 00:00
Orbit: 940 x 951 km, 81.0° (Epoch: 29 March)

Date Brightness Start Highest point End Pass type
(mag) Time Alt. Az. Time Alt. Az. Time Alt. Az.
4 Apr ? 20:36:27 49° ESE 20:37:02 51° E 20:42:55 10° NNE visible
4 Apr ? 22:20:23 21° W 22:22:19 24° WNW 22:27:11 10° NNW visible
5 Apr ? 19:08:39 10° E 19:09:23 10° E 19:10:08 10° ENE visible
5 Apr ? 20:51:28 48° S 20:53:18 80° E 20:59:25 10° NNE visible
5 Apr ? 22:35:27 10° W 22:39:01 16° WNW 22:42:36 10° NNW visible
6 Apr ? 19:22:21 12° ESE 19:25:21 17° E 19:29:10 10° NE visible
6 Apr ? 21:06:15 27° SSW 21:09:39 67° WNW 21:15:45 10° N visible
7 Apr ? 19:36:44 12° SE 19:41:23 28° E 19:46:25 10° NNE visible
7 Apr ? 21:20:35 11° SW 21:26:06 43° WNW 21:31:54 10° N visible
8 Apr ? 19:51:49 10° SSE 19:57:31 43° E 20:03:15 10° NNE visible
8 Apr ? 21:37:30 10° SW 21:42:39 28° WNW 21:47:51 10° NNW visible
9 Apr ? 20:07:42 10° S 20:13:45 68° E 20:19:48 10° NNE visible
9 Apr ? 21:55:12 10° WSW 21:59:19 18° WNW 22:03:27 10° NNW visible
10 Apr ? 20:23:58 10° SSW 20:30:04 78° W 20:36:12 10° N visible
10 Apr ? 22:14:05 10° W 22:16:06 12° WNW 22:18:08 10° NW visible
11 Apr ? 18:57:14 10° SE 19:01:55 24° E 19:06:36 10° NE visible
11 Apr ? 20:40:35 10° SSW 20:46:29 50° WNW 20:52:25 10° N visible
12 Apr ? 19:12:31 10° SSE 19:18:01 37° E 19:23:32 10° NNE visible
12 Apr ? 20:57:35 10° SW 21:03:00 33° WNW 21:08:27 10° N visible
13 Apr ? 19:28:16 10° S 19:34:13 58° E 19:40:11 10° NNE visible
13 Apr ? 21:15:04 10° WSW 21:19:37 21° WNW 21:24:12 10° NNW visible
